Yatton Keynell, United Kingdom

2:33 PM BST on April 20, 2019 (GMT +0100)
Yatton Keynell

Weather History for 03740 - July, 2011

Change the Weather History Date:

Monday, July 4, 2011

  Actual Average Record
Temperature  
Mean Temperature 65 °F -  
Max Temperature 76 °F 69 °F - ()
Min Temperature 54 °F 53 °F - ()
Growing Degree Days 15 (Base 50)    
Moisture  
Dew Point 49 °F    
Average Humidity 56    
Maximum Humidity 77    
Minimum Humidity 36    
Precipitation  
Precipitation 0.00 in 0.07 in - ()
Sea Level Pressure  
Sea Level Pressure 30.02 in    
Wind  
Wind Speed 5 mph ()    
Max Wind Speed 12 mph    
Max Gust Speed -    
Visibility 10.8 miles    
Events      
T = Trace of Precipitation, MM = Missing Value Source: Averaged Metar Reports

Daily Weather History Graph

Daily Weather History Graph

Search for Another Location

Airport or City:

Astronomy

Jul. 04, 2011 Rise Set
Actual Time 4:56 AM BST 9:27 PM BST
Civil Twilight 4:10 AM BST 10:13 PM BST
Nautical Twilight 2:58 AM BST 11:24 PM BST
Astronomical Twilight 1:44 AM BST 12:39 AM BST
Moon 8:49 AM BST (7/4) 10:50 PM BST (7/4)
Length of Visible Light 18h 03m
Length of Day
16h 30m
Waxing Crescent, 12% of the Moon is Illuminated
Jul 4
Waxing Crescent
Jul 8
First Quarter
Jul 15
Full
Jul 23
Last Quarter
Jul 30
New

Hourly Weather History & Observations

Time (BST) Temp. Dew Point Humidity Pressure Visibility Wind Dir Wind Speed Gust Speed Precip Events Conditions
12:50 AM 60 °F 47 °F 51% 30.05 in 15 mi WSW 5.8 mph - -  
12:50 AM 59.0 °F 46.4 °F 63% 30.04 in 6.2 mi WSW 5.8 mph - N/A   Unknown
1:50 AM 57.2 °F 46.4 °F 67% 30.04 in 6.2 mi SSW 1.2 mph - N/A   Unknown
2:50 AM 57.2 °F 46.4 °F 67% 30.04 in 6.2 mi SSW 2.3 mph - N/A   Unknown
3:50 AM 57 °F 47 °F 60% 30.04 in 13 mi SSW 3.5 mph - -   Scattered Clouds
3:50 AM 57.2 °F 46.4 °F 67% 30.01 in 6.2 mi SSW 3.5 mph - N/A   Partly Cloudy
4:50 AM 55.4 °F 46.4 °F 72% 30.04 in 6.2 mi South 2.3 mph - N/A   Mostly Cloudy
5:50 AM 55.4 °F 48.2 °F 77% 30.04 in 6.2 mi SSW 2.3 mph - N/A   Mostly Cloudy
6:50 AM 58 °F 49 °F 62% 30.04 in 12 mi SW 3.5 mph - -   Scattered Clouds
6:50 AM 57.2 °F 48.2 °F 72% 30.04 in - SW 3.5 mph - N/A   Clear
7:50 AM 57.2 °F 48.2 °F 72% 30.04 in - South 5.8 mph - N/A   Clear
8:50 AM 62.6 °F 51.8 °F 68% 30.04 in - South 4.6 mph - N/A   Clear
9:50 AM 67 °F 52 °F 48% 30.05 in 16 mi SSE 3.5 mph - -   Scattered Clouds
9:50 AM 66.2 °F 51.8 °F 60% 30.04 in - SSE 3.5 mph - N/A   Clear
10:50 AM 69.8 °F 51.8 °F 53% 30.04 in 6.2 mi SSE 4.6 mph - N/A   Partly Cloudy
11:50 AM 69.8 °F 51.8 °F 53% 30.04 in 6.2 mi SE 5.8 mph - N/A   Scattered Clouds
12:50 PM 73 °F 52 °F 36% 30.02 in 16 mi SSE 6.9 mph - -   Partly Cloudy
12:50 PM 73.4 °F 51.8 °F 47% 30.04 in 6.2 mi SSE 6.9 mph - N/A   Scattered Clouds
1:50 PM 71.6 °F 48.2 °F 43% 30.01 in - South 10.4 mph - N/A   Clear
2:50 PM 73.4 °F 50.0 °F 44% 30.01 in - SSE 10.4 mph - N/A   Clear
3:50 PM 72 °F 52 °F 38% 30.01 in 19 mi South 6.9 mph - -   Partly Cloudy
3:50 PM 73.4 °F 51.8 °F 47% 30.01 in - South 6.9 mph - N/A   Clear
4:50 PM 73.4 °F 51.8 °F 47% 30.01 in - SSE 10.4 mph - N/A   Clear
5:50 PM 71.6 °F 51.8 °F 50% 30.01 in - SSW 11.5 mph - N/A   Clear
6:50 PM 69 °F 50 °F 39% 30.00 in 19 mi South 8.1 mph - -   Clear
6:50 PM 69.8 °F 50.0 °F 49% 30.01 in - South 8.1 mph - N/A   Clear
7:50 PM 66.2 °F 50.0 °F 56% 30.01 in - South 8.1 mph - N/A   Clear
8:50 PM 64.4 °F 48.2 °F 56% 30.01 in - South 6.9 mph - N/A   Clear
9:50 PM 62 °F 48 °F 50% 30.01 in 17 mi SSE 6.9 mph - -   Scattered Clouds
9:50 PM 62.6 °F 48.2 °F 59% 30.01 in - SSE 6.9 mph - N/A   Clear
10:50 PM 60.8 °F 46.4 °F 59% 30.01 in - SSE 8.1 mph - N/A   Clear
11:50 PM 57.2 °F 44.6 °F 63% 29.98 in - SSE 5.8 mph - N/A   Clear